Temperature
3 4 3 3 3 3 3 3 3 4 4 5 5 4 5 5 5 5 5 6 5 5 5 5 5 5 5 5 5 5 5 4 4 4 4 4 4 3 3 3 3 3 3 3
3 3 3 3 3 3 3 3 3 3 4 4 4 4 4 4 5 5 5 5 5 5 5 5 5 5 4 4 4 4 4 4 4 4 4 3 3 3 3 3 3 3 3 3
2 3 3 3 3 3 3 2 2 3 4 4 3 3 4 4 5 5 5 5 5 5 5 4 4 4 4 4 4 4 4 3 3 3 3 3 3 3 3 2 2 2 2 2
2 2 3 4 4 3 3 3 2 3 3 3 3 4 5 5 5 5 4 4 4 4 4 4 4 4 4 3 3 3 3 3 3 3 3 2 2 2 2 2 2 2 2 2
1 2 2 3 3 3 3 3 3 2 2 3 3 3 4 5 4 4 4 4 4 4 4 4 4 3 3 3 3 3 3 3 2 2 2 2 2 2 2 1 1 1 1 1
1 2 2 4 4 3 3 3 3 2 2 2 2 1 2 4 4 4 4 4 4 4 3 3 3 3 3 3 2 2 2 2 2 2 1 1 1 1 1 1 1 1 1 1
1 1 2 2 2 3 3 3 3 3 3 2 2 2 3 4 3 3 3 3 3 3 3 3 3 2 2 2 2 2 2 2 1 1 1 1 1 1 1 0 0 0 0 0
1 1 2 2 2 2 2 3 3 3 3 3 3 3 3 3 3 3 3 3 2 2 2 2 2 2 2 1 1 1 1 1 1 1 1 0 0 0 -0 -0 -0 -0 -0 -0
1 2 2 2 2 3 3 3 3 3 3 3 2 2 2 2 2 2 2 2 2 2 2 2 1 1 1 1 1 1 1 1 1 0 0 -0 -0 -0 -1 -1 -1 -1 -1 -1
-1 -0 1 1 2 2 2 2 2 2 2 2 2 2 2 2 2 2 2 2 1 1 1 1 1 1 1 0 0 0 0 0 0 -0 -0 -0 -1 -1 -1 -1 -1 -1 -1 -1
-1 -1 0 1 2 2 2 2 2 2 2 2 2 2 1 1 1 1 1 1 1 1 1 1 1 1 0 0 -0 -0 -0 -0 -0 -0 -1 -1 -1 -1 -1 -1 -1 -1 -1 -1
-0 0 -0 1 1 1 1 1 1 1 1 1 1 1 1 1 1 0 0 0 0 0 0 0 0 0 -0 -0 -0 -1 -1 -1 -1 -1 -1 -1 -1 -1 -1 -2 -2 -2 -2 -2
1 1 1 1 1 1 1 1 1 1 0 0 1 0 0 0 0 -0 -0 -0 -0 -0 -0 -0 -0 -0 -0 -1 -1 -1 -1 -1 -1 -1 -1 -2 -2 -2 -2 -2 -2 -2 -2 -2
0 0 -0 -0 -0 0 -0 -0 -0 -0 -0 -0 -0 -0 -0 -0 -0 -0 -1 -1 -1 -1 -1 -1 -1 -1 -1 -1 -1 -1 -1 -1 -2 -2 -2 -2 -2 -2 -2 -2 -2 -2 -2 -3
-0 -0 -1 -1 -1 -1 -1 -1 -1 -1 -1 -1 -1 -1 -1 -1 -1 -1 -1 -1 -1 -1 -1 -1 -1 -1 -2 -2 -2 -2 -2 -2 -2 -2 -2 -2 -2 -2 -2 -3 -3 -3 -3 -3
-1 -1 -1 -1 -1 -1 -1 -1 -1 -1 -1 -1 -1 -2 -2 -1 -1 -1 -1 -2 -2 -2 -2 -2 -2 -2 -2 -2 -2 -2 -2 -2 -2 -2 -2 -2 -3 -3 -3 -3 -3 -3 -3 -3
-2 -2 -2 -2 -2 -2 -2 -2 -2 -2 -2 -2 -2 -2 -2 -2 -2 -2 -2 -2 -2 -2 -2 -2 -2 -2 -2 -3 -3 -3 -3 -3 -3 -3 -3 -3 -3 -3 -3 -3 -3 -3 -3 -3
-2 -2 -2 -2 -2 -2 -2 -2 -2 -2 -2 -2 -2 -2 -2 -2 -2 -2 -2 -2 -2 -2 -2 -3 -3 -3 -3 -3 -3 -3 -3 -3 -3 -3 -3 -3 -3 -3 -3 -4 -4 -4 -4 -4
-2 -2 -3 -3 -3 -3 -3 -3 -3 -3 -3 -3 -3 -3 -2 -3 -3 -3 -3 -3 -3 -3 -3 -3 -3 -3 -3 -3 -4 -4 -4 -4 -3 -4 -4 -4 -4 -4 -4 -4 -4 -4 -4 -4
-3 -3 -3 -3 -3 -3 -3 -3 -3 -3 -3 -3 -3 -3 -3 -3 -3 -3 -3 -3 -3 -3 -3 -3 -4 -4 -4 -4 -4 -4 -4 -4 -4 -4 -4 -4 -4 -4 -4 -4 -4 -4 -4 -4
-3 -3 -3 -3 -3 -3 -3 -3 -3 -3 -3 -3 -3 -3 -3 -3 -3 -3 -3 -3 -3 -4 -4 -4 -4 -4 -4 -4 -4 -4 -4 -5 -5 -5 -5 -5 -5 -5 -5 -5 -5 -4 -5 -5
-4 -4 -4 -4 -4 -4 -4 -4 -4 -4 -4 -4 -4 -4 -4 -4 -4 -4 -4 -4 -4 -4 -4 -4 -4 -4 -5 -5 -5 -5 -5 -5 -5 -5 -5 -5 -5 -5 -5 -5 -5 -5 -5 -5
-4 -4 -4 -4 -4 -4 -4 -4 -4 -4 -4 -4 -4 -4 -4 -4 -4 -4 -4 -4 -4 -4 -4 -4 -4 -5 -5 -5 -5 -5 -5 -5 -5 -5 -5 -5 -5 -5 -5 -5 -5 -5 -5 -5
-5 -5 -5 -5 -5 -5 -5 -5 -5 -5 -5 -5 -5 -5 -5 -5 -4 -4 -5 -5 -5 -5 -5 -5 -5 -5 -5 -5 -5 -5 -5 -5 -5 -5 -5 -5 -5 -5 -5 -5 -5 -5 -5 -5
-5 -6 -6 -6 -5 -5 -5 -5 -5 -5 -5 -5 -5 -5 -5 -5 -5 -5 -5 -5 -5 -5 -5 -5 -5 -5 -5 -5 -5 -5 -5 -5 -6 -6 -6 -6 -5 -5 -5 -5 -5 -5 -5 -5
-6 -6 -6 -6 -6 -6 -6 -6 -6 -6 -6 -6 -6 -5 -5 -6 -6 -6 -6 -6 -6 -6 -6 -6 -6 -6 -6 -6 -6 -6 -6 -6 -6 -6 -6 -6 -6 -6 -6 -6 -5 -5 -5 -6
-7 -7 -7 -7 -7 -7 -7 -7 -7 -7 -7 -6 -6 -6 -6 -6 -6 -6 -6 -6 -6 -6 -6 -6 -6 -6 -6 -6 -6 -6 -6 -6 -6 -6 -6 -6 -6 -6 -6 -6 -6 -6 -6 -6
Wind_Speed
7 6 4 7 9 8 10 9 9 10 10 11 8 6 5 4 4 3 3 3 4 3 3 3 2 2 2 2 2 2 2 2 3 2 2 2 2 3 3 3 3 3 3 3
5 4 5 9 10 11 11 9 10 11 12 8 6 4 4 5 4 4 5 5 4 4 4 4 3 3 3 2 2 2 2 3 2 2 2 2 2 2 2 2 3 3 3 4
4 4 4 8 9 10 7 7 8 11 10 3 4 6 6 6 5 6 6 5 5 5 5 5 5 4 4 3 2 2 2 2 2 2 2 2 2 2 2 3 2 3 3 4
2 1 7 7 3 6 7 7 8 7 6 5 6 7 6 5 5 6 5 5 4 4 4 4 4 4 3 2 2 3 3 3 3 3 3 2 2 2 3 2 3 3 4 4
3 5 8 7 3 5 5 6 6 7 6 4 2 3 4 4 3 4 5 4 4 4 4 3 3 3 2 2 2 3 3 4 3 3 3 3 3 4 3 2 3 3 3 4
4 5 7 6 2 2 2 5 3 4 5 3 0 2 5 3 3 4 4 3 3 2 2 2 2 1 1 2 2 4 4 4 4 3 4 4 5 4 3 3 4 4 4 4
7 7 8 5 1 3 3 5 2 2 3 3 3 5 5 4 4 3 3 3 2 2 2 2 2 1 1 2 4 4 3 3 3 3 4 4 4 3 3 3 3 4 4 4
6 7 8 1 2 3 4 2 1 1 1 2 4 4 4 4 4 4 4 3 2 2 3 3 2 1 2 4 4 3 3 3 3 3 3 3 3 3 3 3 3 4 4 4
6 6 3 1 3 3 2 2 2 2 3 3 3 4 4 4 3 3 3 3 2 1 2 3 2 2 3 5 3 3 3 3 3 3 3 3 3 3 3 3 3 4 4 4
4 6 5 4 4 4 3 3 4 3 4 3 4 5 4 4 4 3 3 3 2 2 3 4 3 3 4 4 3 3 4 4 3 3 3 3 3 3 3 4 4 4 4 4
6 6 5 5 4 4 4 4 4 4 3 4 4 4 4 4 4 4 4 3 2 2 3 5 4 4 4 4 3 3 3 3 3 3 3 3 3 3 4 5 5 5 5 4
7 6 4 6 5 4 4 5 5 4 4 3 3 3 3 3 4 4 4 3 3 3 4 5 4 5 5 3 3 3 3 3 3 3 3 2 3 4 5 6 7 8 8 7
6 5 5 6 6 5 4 5 4 3 3 4 3 2 3 3 4 3 4 4 4 5 5 5 5 5 5 4 3 3 4 4 3 3 3 3 3 3 4 4 5 6 7 8
4 3 5 5 5 4 3 3 3 2 2 2 3 3 2 3 4 4 5 5 5 5 5 5 5 6 5 4 3 3 4 4 4 3 3 3 3 4 3 4 4 4 5 7
5 4 5 5 4 3 2 2 2 3 3 3 3 3 3 4 5 5 5 4 4 4 4 4 5 6 4 3 3 4 3 3 3 3 3 3 3 3 4 4 4 4 4 5
4 2 2 2 3 3 3 2 2 4 4 4 4 4 4 4 5 5 4 3 3 5 5 5 6 6 4 3 4 3 4 6 5 4 3 3 3 4 4 4 4 5 5 4
1 3 2 3 4 4 4 4 4 4 4 4 5 5 4 4 4 5 5 4 4 5 5 5 6 6 4 3 3 3 4 4 6 4 4 4 4 4 4 4 5 5 5 6
4 4 4 5 5 4 4 4 4 4 4 5 5 4 4 4 5 6 6 5 5 5 5 6 5 5 4 4 3 3 3 4 4 4 4 4 4 4 4 4 5 5 5 6
3 3 3 4 4 4 4 4 4 4 4 4 4 5 5 6 5 5 5 5 5 6 6 5 7 5 4 5 5 3 4 4 4 4 4 5 5 4 4 4 5 5 5 5
3 3 3 4 3 3 4 4 4 5 5 4 4 5 6 6 5 5 5 6 6 6 6 6 5 5 5 5 5 3 4 4 5 5 4 4 4 4 4 5 5 5 5 5
4 4 4 4 5 5 4 4 4 5 6 5 5 6 7 7 5 5 5 6 6 5 6 7 5 4 4 5 5 3 4 4 4 4 5 5 5 5 5 5 5 5 5 5
5 4 5 5 5 6 5 4 4 5 5 5 5 5 5 6 5 5 6 6 6 7 5 4 4 6 7 6 3 3 4 4 4 4 4 4 5 5 5 5 5 5 5 5
5 5 5 6 6 6 6 5 5 5 5 6 6 6 6 6 5 5 6 5 4 7 5 4 7 9 9 5 3 4 4 4 4 4 5 5 5 5 5 5 5 5 5 5
5 6 6 5 4 5 6 6 5 5 5 6 6 6 5 5 5 4 5 7 8 8 5 7 10 10 8 4 3 4 4 4 4 4 4 4 5 5 5 5 5 5 5 5
5 5 5 5 5 5 6 6 5 5 5 4 5 5 4 4 5 5 4 5 7 8 5 7 9 9 5 4 4 4 4 5 5 4 4 4 5 5 5 5 5 5 5 4
5 5 5 5 5 5 4 4 4 4 4 5 5 4 3 3 4 4 4 5 6 7 6 4 5 6 4 4 4 5 5 5 5 5 4 4 5 5 5 5 5 5 4 4
5 4 4 4 4 4 4 4 4 5 5 5 5 5 4 4 4 4 4 4 4 4 4 4 4 4 4 4 4 4 4 4 4 4 4 4 4 4 5 5 5 4 4 4
Wind_Direction
252 262 242 244 240 217 216 217 224 245 247 263 270 276 275 272 277 280 281 277 266 263 266 270 266 262 250 250 245 222 201 206 223 223 212 207 212 218 217 216 225 225 226 233
272 256 250 262 251 227 230 230 238 257 265 260 265 275 279 272 262 265 274 275 269 261 260 256 250 248 247 249 241 216 217 228 223 202 198 211 223 222 226 235 235 230 232 235
267 295 307 266 233 210 213 213 205 233 250 267 272 267 263 260 257 255 263 268 267 267 257 251 246 238 236 239 236 221 229 233 221 207 212 225 227 221 229 240 243 244 243 239
253 347 248 251 215 193 208 235 221 234 256 247 252 268 270 255 245 258 268 270 270 266 264 259 244 238 235 230 228 230 232 233 228 219 228 233 232 241 243 235 234 244 250 249
198 242 271 282 239 182 201 261 228 232 255 261 288 328 298 263 244 253 261 266 265 260 259 259 256 238 212 227 234 237 237 239 235 221 222 231 238 246 249 245 249 249 251 246
198 227 245 252 223 180 140 274 245 213 237 250 89 302 281 295 298 290 292 293 292 299 303 293 284 237 207 239 242 247 247 244 239 225 224 234 241 249 255 246 251 253 256 249
217 236 260 263 250 121 178 257 286 207 217 210 214 231 263 299 309 304 303 305 317 336 325 286 279 228 240 253 256 261 260 256 250 235 232 236 242 248 246 250 255 256 259 261
196 222 252 265 121 179 236 291 285 263 254 242 255 278 294 299 298 311 320 325 333 337 321 309 289 239 255 265 269 273 265 261 258 251 248 245 237 250 243 236 247 256 260 271
208 229 282 245 228 265 255 255 269 268 279 271 282 285 292 295 303 309 309 309 309 301 306 311 302 257 257 272 278 280 272 268 266 263 257 240 230 239 248 233 238 251 252 263
253 266 277 279 285 295 282 263 274 276 277 262 264 275 285 291 298 303 305 302 300 304 302 302 300 285 266 275 278 272 271 271 266 259 264 258 244 232 233 234 237 246 250 257
255 274 297 285 281 289 294 292 293 292 278 255 253 269 267 278 287 289 295 295 290 281 282 287 294 292 286 277 265 263 264 263 261 256 255 261 261 244 239 238 235 241 244 244
244 243 237 266 270 281 279 279 279 280 288 285 259 261 271 276 280 285 290 294 292 285 281 284 286 288 287 274 252 249 267 266 258 256 259 257 270 291 273 261 266 261 258 256
253 267 255 266 274 274 269 275 277 270 264 279 288 272 270 277 280 283 286 283 278 277 278 281 283 284 285 277 261 247 254 260 258 251 249 252 255 264 289 298 280 268 265 265
257 270 275 273 273 284 283 283 294 296 289 278 284 290 286 286 290 289 285 282 280 279 282 284 285 285 286 280 272 266 261 259 256 248 247 248 251 255 259 272 290 290 278 274
268 246 245 269 288 292 295 304 322 313 313 314 307 299 294 290 290 289 290 294 296 294 292 290 288 289 294 284 274 271 269 262 255 252 248 248 252 256 257 260 267 278 289 287
281 290 271 271 282 289 299 297 289 295 303 303 305 298 289 282 284 288 291 292 293 292 291 288 286 289 294 285 279 279 272 272 270 258 252 249 247 251 256 259 263 268 273 278
263 281 276 281 277 279 277 269 267 275 281 282 284 289 293 292 291 294 296 293 284 282 284 283 285 291 288 275 270 275 275 275 275 269 255 250 249 250 252 257 263 268 270 270
228 238 241 242 245 259 274 275 269 271 273 275 285 288 287 282 282 287 292 298 299 296 288 282 285 291 285 276 271 269 268 270 267 263 262 258 258 255 254 257 261 268 278 279
285 268 270 269 258 255 265 272 274 274 276 277 280 280 277 274 276 281 286 290 291 293 293 289 295 295 282 275 279 266 263 266 268 266 263 263 266 258 254 255 260 264 270 276
312 303 297 297 293 274 275 281 282 282 279 273 276 281 283 282 280 279 279 275 267 265 277 290 294 285 278 274 280 266 260 261 263 266 266 260 259 260 257 258 260 263 266 268
306 306 305 300 297 293 282 281 281 281 283 275 266 269 274 279 277 272 274 282 280 272 280 287 286 278 278 281 280 267 262 263 265 266 265 263 263 262 262 262 262 263 265 268
295 294 295 296 295 295 293 286 277 277 282 280 272 267 271 277 279 275 263 261 275 289 294 280 277 280 287 290 273 266 265 265 266 266 265 264 263 264 264 262 261 263 263 263
294 290 289 289 286 287 291 288 280 276 276 276 274 271 269 271 270 271 283 277 274 287 293 277 285 291 295 289 270 267 267 267 267 266 265 262 262 262 262 261 261 261 261 261
297 297 294 292 291 291 291 290 287 281 276 278 276 270 269 278 284 265 260 282 292 294 289 287 294 296 298 286 269 266 267 267 267 266 265 264 263 262 261 261 263 262 259 259
302 300 298 299 297 292 287 292 295 291 290 291 287 281 273 263 267 281 281 279 288 295 291 290 294 297 295 280 274 270 268 266 268 267 263 265 265 263 263 262 261 263 262 260
303 301 297 293 290 291 294 294 293 294 296 299 300 296 290 284 276 280 284 283 281 290 290 284 285 289 283 278 276 274 273 278 280 275 267 267 268 267 265 263 262 262 262 261
308 305 306 309 308 302 298 293 290 291 289 288 293 296 295 295 293 290 287 287 288 288 287 286 285 282 281 281 281 279 278 278 275 271 270 268 266 266 267 265 266 264 262 259
Height
1488 1486 1488 1486 1485 1488 1490 1488 1489 1480 1479 1470 1469 1468 1467 1467 1466 1465 1465 1464 1464 1464 1464 1464 1464 1464 1464 1464 1464 1465 1465 1465 1465 1466 1466 1466 1467 1467 1467 1466 1467 1467 1466 1466
1486 1483 1484 1482 1479 1481 1481 1481 1481 1477 1473 1466 1466 1466 1464 1464 1463 1463 1462 1462 1462 1461 1461 1461 1461 1461 1461 1461 1461 1462 1461 1461 1462 1462 1462 1462 1463 1462 1462 1462 1462 1462 1462 1462
1488 1485 1481 1478 1472 1473 1474 1473 1473 1471 1466 1464 1464 1463 1462 1461 1460 1460 1459 1459 1458 1458 1458 1458 1458 1458 1458 1458 1458 1458 1458 1458 1458 1458 1459 1458 1458 1458 1458 1458 1458 1458 1458 1457
1488 1487 1483 1467 1463 1464 1466 1465 1465 1463 1462 1462 1461 1460 1459 1458 1458 1457 1456 1456 1455 1455 1455 1455 1455 1455 1455 1455 1455 1455 1455 1455 1455 1455 1455 1455 1454 1454 1454 1453 1453 1453 1453 1453
1487 1486 1476 1465 1461 1462 1464 1462 1459 1460 1459 1459 1459 1458 1457 1456 1456 1455 1454 1453 1453 1452 1451 1451 1451 1451 1451 1451 1451 1451 1451 1451 1451 1451 1450 1450 1450 1450 1449 1449 1449 1449 1448 1448
1485 1482 1475 1461 1458 1457 1460 1461 1456 1456 1456 1457 1458 1461 1457 1454 1453 1452 1451 1451 1450 1449 1448 1448 1447 1447 1447 1447 1447 1447 1447 1447 1447 1446 1446 1446 1446 1445 1445 1445 1444 1444 1444 1444
1480 1478 1468 1459 1457 1457 1464 1459 1455 1453 1453 1455 1456 1456 1454 1452 1451 1450 1449 1448 1447 1446 1445 1445 1444 1444 1443 1443 1443 1443 1443 1443 1442 1442 1442 1441 1441 1441 1441 1440 1440 1440 1439 1439
1475 1476 1468 1457 1457 1459 1457 1454 1453 1453 1453 1453 1453 1452 1451 1450 1449 1448 1447 1446 1445 1444 1443 1442 1442 1441 1440 1440 1440 1439 1439 1438 1438 1437 1437 1437 1437 1436 1436 1436 1435 1435 1434 1434
1466 1463 1457 1455 1455 1455 1454 1453 1452 1452 1452 1452 1451 1450 1449 1448 1447 1446 1445 1444 1443 1442 1441 1440 1439 1439 1437 1437 1436 1435 1435 1434 1434 1433 1433 1433 1432 1432 1432 1431 1431 1430 1430 1429
1463 1457 1454 1453 1453 1453 1452 1451 1451 1450 1450 1449 1448 1448 1447 1446 1444 1443 1442 1442 1441 1439 1438 1437 1436 1436 1435 1433 1432 1431 1430 1430 1429 1429 1429 1429 1428 1428 1427 1427 1427 1426 1426 1425
1459 1454 1452 1450 1451 1451 1450 1450 1449 1448 1447 1447 1446 1445 1444 1443 1442 1441 1440 1439 1438 1437 1436 1434 1433 1432 1431 1430 1429 1428 1427 1426 1426 1425 1425 1425 1424 1424 1423 1423 1423 1422 1421 1421
1453 1450 1450 1448 1448 1448 1448 1447 1446 1445 1444 1444 1443 1442 1441 1440 1439 1438 1437 1436 1435 1434 1433 1431 1430 1428 1427 1426 1425 1424 1423 1422 1422 1422 1421 1421 1420 1420 1419 1419 1419 1418 1417 1417
1447 1446 1446 1445 1445 1445 1444 1443 1443 1442 1441 1440 1440 1439 1438 1437 1436 1435 1434 1433 1432 1430 1429 1428 1426 1425 1424 1423 1422 1421 1420 1419 1418 1418 1417 1417 1416 1416 1415 1415 1414 1414 1413 1412
1444 1443 1442 1441 1441 1441 1440 1440 1439 1439 1438 1438 1437 1436 1435 1434 1433 1432 1431 1430 1428 1427 1425 1424 1422 1421 1420 1419 1418 1417 1416 1415 1415 1414 1413 1413 1413 1412 1411 1410 1409 1408 1409 1408
1440 1440 1439 1438 1438 1437 1437 1436 1436 1435 1435 1434 1434 1433 1432 1431 1429 1428 1427 1426 1424 1423 1421 1420 1418 1417 1416 1415 1414 1413 1412 1411 1411 1410 1409 1409 1408 1408 1407 1407 1406 1404 1404 1403
1437 1437 1436 1435 1435 1434 1434 1433 1433 1432 1432 1431 1430 1430 1429 1428 1427 1425 1424 1422 1421 1419 1418 1416 1415 1414 1413 1411 1410 1409 1409 1408 1407 1406 1405 1405 1404 1404 1403 1402 1401 1401 1400 1399
1434 1433 1433 1433 1432 1432 1431 1431 1430 1430 1429 1428 1428 1427 1426 1424 1423 1422 1420 1419 1418 1416 1414 1413 1411 1410 1409 1407 1406 1405 1405 1404 1403 1402 1401 1401 1400 1400 1399 1398 1397 1397 1396 1395
1432 1431 1431 1430 1429 1429 1428 1428 1428 1427 1427 1426 1425 1423 1422 1421 1420 1418 1417 1415 1414 1412 1411 1410 1408 1406 1405 1404 1403 1402 1401 1399 1399 1398 1397 1397 1396 1396 1395 1394 1393 1392 1391 1391
1430 1429 1428 1428 1427 1426 1426 1425 1425 1424 1424 1423 1421 1420 1419 1418 1416 1415 1414 1412 1410 1408 1407 1406 1404 1403 1401 1400 1399 1397 1396 1395 1394 1394 1393 1392 1392 1391 1391 1390 1389 1388 1387 1386
1428 1427 1426 1425 1425 1424 1423 1422 1421 1421 1420 1419 1418 1416 1415 1414 1413 1411 1410 1408 1406 1405 1403 1402 1400 1399 1397 1396 1394 1393 1392 1391 1390 1389 1389 1388 1387 1386 1386 1385 1384 1384 1383 1382
1425 1424 1423 1422 1421 1420 1420 1419 1418 1417 1416 1415 1414 1412 1411 1410 1409 1407 1405 1403 1402 1401 1399 1398 1396 1394 1393 1392 1390 1389 1388 1387 1386 1385 1384 1383 1382 1382 1381 1380 1380 1379 1378 1377
1422 1421 1420 1419 1418 1417 1416 1415 1414 1413 1411 1410 1409 1408 1406 1405 1404 1403 1401 1400 1398 1397 1395 1393 1392 1391 1389 1388 1386 1385 1384 1382 1381 1380 1379 1379 1378 1377 1376 1376 1375 1375 1374 1373
1419 1418 1417 1415 1414 1413 1412 1411 1410 1408 1407 1406 1404 1403 1402 1401 1399 1398 1396 1396 1394 1393 1391 1389 1388 1387 1385 1384 1382 1381 1379 1378 1377 1376 1375 1374 1373 1373 1372 1371 1371 1370 1369 1369
1416 1414 1413 1412 1410 1409 1407 1406 1405 1404 1403 1401 1400 1399 1398 1396 1395 1394 1393 1391 1390 1389 1387 1386 1384 1383 1381 1380 1378 1377 1375 1374 1373 1372 1371 1370 1369 1369 1368 1367 1366 1366 1365 1365
1412 1411 1409 1408 1406 1405 1403 1402 1401 1399 1398 1397 1395 1394 1393 1392 1391 1389 1388 1386 1385 1384 1383 1381 1380 1379 1377 1376 1374 1373 1372 1370 1369 1368 1367 1366 1365 1365 1364 1363 1362 1361 1361 1360
1409 1407 1406 1404 1403 1401 1399 1398 1396 1395 1394 1392 1391 1390 1389 1388 1386 1385 1383 1382 1381 1380 1378 1377 1376 1374 1373 1372 1370 1369 1368 1367 1366 1365 1363 1362 1361 1361 1360 1359 1358 1357 1357 1356
1406 1404 1402 1400 1399 1397 1396 1394 1393 1391 1390 1388 1387 1386 1385 1383 1382 1380 1379 1378 1376 1375 1374 1373 1372 1370 1369 1368 1366 1365 1364 1363 1362 1361 1359 1358 1357 1356 1356 1355 1354 1353 1353 1352